Wind_Speed
28 28 28 28 29 30 31 31 32 32 33 32 32 32 32 31 31 31 31 32 32 33 33 33 33 34 35 35 36 36 37 36 36 37 37 37 37 37 37 36 36 36 35
28 28 29 30 31 32 33 33 33 33 32 31 31 31 31 31 31 31 31 31 32 33 33 33 34 34 35 35 36 37 38 38 37 38 38 37 38 38 38 39 38 38 37
29 30 31 32 33 33 33 33 33 32 31 31 31 31 30 30 30 31 32 32 32 33 33 34 35 36 36 37 37 39 39 39 39 39 39 39 38 39 39 39 40 40 39
30 31 32 33 33 33 32 32 32 32 32 31 31 31 31 30 31 32 32 33 33 34 34 35 36 37 37 38 38 39 40 40 41 41 41 42 42 42 41 41 41 40 40
32 33 33 33 33 33 33 33 33 32 32 32 32 32 32 31 32 33 33 34 35 35 36 36 37 37 38 39 39 39 40 41 42 43 43 43 43 43 43 43 42 40 41
34 34 34 34 34 34 33 33 33 33 33 34 34 33 33 33 34 34 35 36 36 37 38 38 38 38 38 39 39 39 39 40 41 42 44 45 44 44 45 44 43 43 43
35 34 33 33 33 34 34 33 33 33 34 34 35 35 35 36 36 37 37 37 37 38 38 38 39 38 39 39 40 40 40 41 42 42 43 44 44 45 46 45 44 45 45
35 34 33 33 34 34 34 34 35 36 36 37 37 37 37 37 38 39 39 39 39 39 40 40 40 40 41 41 41 41 42 42 43 43 43 44 45 44 45 45 44 44 45
34 34 34 34 35 35 36 36 37 38 38 39 39 40 40 40 40 40 41 41 41 41 42 42 43 43 43 43 43 43 44 44 44 45 45 45 45 46 47 47 46 45 44
35 35 35 36 36 36 37 37 37 38 39 40 41 41 42 43 42 42 43 43 44 44 44 44 45 45 45 45 45 45 46 46 46 47 47 47 47 47 47 48 48 48 47
36 36 36 37 38 38 39 40 40 41 41 42 42 43 43 44 44 44 44 45 45 46 46 47 47 47 47 47 47 47 48 48 48 49 49 49 49 49 49 49 49 49 48
35 36 37 38 39 40 41 41 42 43 44 44 44 45 45 46 46 47 47 47 47 48 48 49 49 49 49 49 49 49 49 49 49 49 49 50 50 50 50 50 50 50 50
36 37 39 39 40 41 42 43 44 45 46 46 47 47 48 48 49 49 49 49 50 50 50 50 51 51 51 52 51 51 50 50 50 51 51 51 51 51 51 51 51 50 51
39 40 41 41 42 43 44 45 47 47 48 49 49 49 50 50 50 51 51 52 52 51 51 51 51 52 52 52 52 52 51 51 51 51 52 52 52 51 52 52 52 52 51
41 42 42 43 44 45 46 47 48 48 49 50 50 50 51 51 52 52 53 53 53 52 52 52 52 52 52 52 52 52 52 52 51 52 52 52 52 52 52 52 52 52 52
42 43 44 44 45 47 48 49 49 50 51 51 51 52 52 53 53 54 54 54 54 54 53 52 52 52 52 51 51 51 51 51 51 51 52 52 52 52 52 52 52 52 52
43 44 45 46 47 48 49 50 51 51 52 52 52 52 53 53 54 54 55 54 54 54 53 52 52 52 51 51 51 51 51 50 51 51 51 51 52 52 52 51 51 51 51
44 45 46 47 48 49 50 51 51 51 52 52 53 53 54 54 55 55 54 53 53 53 53 52 52 52 51 51 51 50 50 50 50 50 50 50 50 50 50 50 50 50 50
46 47 47 48 50 51 51 52 52 52 53 53 54 54 55 55 55 54 54 53 53 53 52 52 51 51 50 50 50 49 49 49 49 49 49 49 49 49 49 49 49 49 49
48 49 50 51 51 52 53 54 54 54 54 55 55 55 55 55 54 54 53 52 52 51 51 50 49 49 49 48 48 48 48 48 48 48 48 48 49 49 49 49 49 49 49
51 51 52 53 54 54 55 56 56 56 56 55 56 55 55 55 54 53 52 51 51 50 50 49 49 48 48 47 47 47 47 47 47 47 47 48 47 47 47 47 47 47 47
52 53 53 54 55 56 56 57 57 56 56 55 55 55 55 54 53 52 51 50 50 49 49 48 48 47 47 47 47 47 46 46 46 46 46 46 46 45 46 47 46 46 46
53 54 55 55 56 56 57 57 57 57 55 54 54 54 53 52 51 51 50 50 49 48 48 48 47 46 46 46 46 46 46 45 45 45 45 44 44 44 45 45 46 46 46
55 56 56 56 56 57 57 58 57 56 55 53 53 52 51 50 49 49 49 48 48 47 47 46 46 45 45 45 45 45 45 44 44 44 44 43 43 44 45 45 45 46 46
56 57 57 57 57 57 58 58 57 55 53 52 51 50 49 48 48 48 47 46 46 46 46 46 45 45 44 44 44 44 44 44 43 43 44 44 43 44 44 45 45 46 46
57 57 57 58 58 58 58 57 56 54 52 51 50 49 48 47 46 46 46 45 45 44 45 44 44 44 43 43 43 43 43 43 43 43 43 44 44 44 43 44 45 45 46
Wind_Direction
285 286 287 287 287 289 290 291 291 291 291 291 291 289 287 285 285 284 283 282 281 280 280 279 278 277 276 275 274 273 272 272 271 270 269 269 268 268 268 268 267 267 267
285 286 287 287 288 289 291 292 292 292 292 292 292 291 289 287 286 285 284 283 282 281 280 280 279 278 277 275 274 273 273 272 271 270 269 269 268 267 267 266 267 267 268
284 286 287 288 289 290 291 291 291 291 292 292 292 291 290 287 287 285 284 284 283 283 281 280 279 278 277 277 276 274 273 273 272 271 269 268 268 268 267 267 267 267 267
284 287 288 288 288 289 290 290 292 293 293 293 293 292 289 287 285 285 284 284 283 283 283 282 280 279 278 277 276 275 274 273 271 270 270 269 268 269 268 268 268 266 266
286 288 288 288 288 289 289 289 291 292 293 293 293 292 289 288 288 286 285 284 284 283 284 283 282 280 279 277 276 276 274 273 272 271 270 271 270 269 268 267 265 265 265
286 288 288 288 288 289 289 289 290 291 291 291 292 291 289 288 287 286 285 285 285 284 283 283 282 281 279 277 276 275 274 274 273 272 271 271 270 269 269 267 265 265 266
285 287 288 287 287 288 288 289 289 290 291 291 291 291 290 289 287 286 285 285 285 285 284 283 282 281 280 278 276 274 273 273 272 272 272 271 270 269 268 267 266 265 265
285 285 286 287 288 288 288 288 289 290 290 291 291 290 290 289 288 287 286 285 284 284 284 284 282 280 279 279 277 276 274 273 272 273 273 271 270 269 269 267 267 266 264
285 285 286 287 287 287 288 289 289 289 290 290 290 289 289 289 288 288 287 286 284 284 284 282 281 280 279 278 277 276 275 274 273 273 273 271 271 270 269 269 268 268 266
285 285 286 287 287 288 289 290 291 291 291 290 290 289 289 289 289 288 288 286 285 283 282 281 281 280 279 278 277 276 275 274 274 273 272 271 270 270 270 269 268 268 266
284 285 287 287 288 289 291 292 291 291 292 291 290 290 290 289 288 288 287 287 286 285 283 282 280 279 278 278 276 276 275 274 274 273 271 270 270 269 269 269 268 267 266
286 287 288 289 290 291 292 292 292 292 292 291 291 290 290 289 288 288 287 286 286 285 284 283 281 280 278 277 277 276 275 274 273 272 271 270 269 269 268 268 267 266 265
286 288 289 290 291 292 292 292 292 292 291 291 290 289 289 289 289 288 288 287 286 285 284 283 282 281 280 278 278 276 275 273 272 271 270 270 269 268 268 267 267 266 265
286 288 288 290 290 291 292 292 292 292 292 291 290 289 289 288 288 288 288 288 287 286 285 284 282 282 281 280 278 277 275 274 272 271 270 270 269 269 269 268 266 266 266
287 288 289 290 291 292 292 293 293 292 293 291 290 289 289 288 288 288 288 287 287 286 285 284 283 282 281 280 278 277 276 274 273 272 271 271 270 270 269 269 267 266 265
288 289 290 291 292 292 293 293 293 293 293 292 290 290 289 288 288 288 288 288 287 286 285 284 283 282 281 280 279 277 276 275 274 273 272 272 271 270 270 269 268 266 265
289 290 290 291 292 292 293 294 294 294 293 292 291 290 289 289 289 289 288 288 287 286 286 285 285 283 281 280 279 278 277 276 275 274 273 273 272 271 270 269 268 266 265
289 290 290 291 292 293 294 295 295 294 294 293 292 291 291 291 290 289 289 288 287 287 286 286 285 283 282 280 279 278 277 276 275 275 275 274 273 272 271 270 269 267 265
289 290 291 292 293 293 293 294 294 295 295 294 293 292 291 290 290 289 289 288 288 287 287 286 285 283 282 281 280 279 278 278 277 276 276 275 274 273 272 270 269 267 266
290 291 291 292 292 293 293 294 294 295 295 294 293 292 291 290 290 289 289 289 288 287 287 286 284 283 282 281 281 280 279 279 278 277 276 275 274 273 272 271 270 268 267
291 292 292 292 293 293 294 295 295 296 295 294 293 292 291 290 290 289 289 288 287 287 286 286 284 284 283 282 281 280 279 278 278 278 277 276 276 275 274 272 271 269 267
292 292 293 293 294 294 295 296 296 296 295 294 293 292 291 290 289 289 289 288 287 287 286 285 284 284 283 282 281 280 280 279 278 278 278 277 277 276 275 273 271 270 268
293 293 293 294 294 295 296 296 297 296 295 294 293 292 290 289 288 288 288 288 287 287 286 285 285 284 283 282 282 281 280 279 279 279 278 277 276 277 276 275 273 271 269
294 294 293 293 294 295 296 296 296 296 295 294 293 292 290 289 288 288 288 287 287 286 286 286 285 285 284 283 282 281 281 280 280 279 278 277 276 276 276 276 274 272 271
294 294 294 293 294 295 296 296 296 295 295 293 293 292 290 289 288 287 287 287 286 286 286 286 286 285 285 284 284 283 282 280 280 279 279 278 276 276 275 275 274 273 271
294 294 294 294 294 295 295 295 295 294 294 293 292 292 290 289 288 287 287 286 286 286 286 286 286 285 285 285 285 284 283 282 280 280 279 279 277 276 275 275 274 273 272
Height
5817 5816 5815 5814 5812 5811 5810 5808 5807 5805 5804 5803 5801 5799 5798 5797 5796 5795 5794 5793 5793 5792 5792 5791 5791 5790 5790 5790 5790 5790 5790 5790 5791 5791 5792 5793 5793 5794 5794 5795 5796 5796 5797
5811 5810 5809 5807 5806 5804 5803 5801 5800 5798 5797 5795 5793 5791 5790 5789 5788 5787 5787 5786 5785 5784 5784 5783 5782 5782 5782 5781 5781 5781 5781 5781 5782 5782 5783 5784 5784 5784 5785 5786 5787 5787 5788
5805 5804 5802 5800 5799 5797 5796 5794 5793 5791 5790 5788 5786 5784 5783 5782 5781 5780 5779 5778 5777 5776 5775 5775 5774 5773 5773 5772 5772 5772 5772 5772 5772 5773 5773 5774 5774 5775 5775 5776 5777 5778 5779
5799 5797 5795 5794 5792 5790 5789 5787 5786 5785 5783 5781 5779 5778 5776 5775 5774 5772 5771 5770 5769 5768 5767 5766 5765 5764 5763 5763 5763 5762 5762 5763 5763 5763 5763 5763 5764 5765 5765 5766 5767 5768 5769
5791 5790 5788 5787 5785 5783 5782 5781 5779 5777 5776 5774 5772 5770 5769 5767 5766 5765 5764 5762 5761 5760 5758 5757 5756 5754 5754 5753 5753 5753 5752 5753 5753 5753 5753 5752 5753 5754 5755 5756 5756 5757 5759
5784 5783 5781 5779 5778 5776 5774 5773 5772 5770 5768 5767 5765 5763 5761 5760 5758 5757 5755 5754 5752 5751 5749 5748 5747 5745 5744 5743 5743 5743 5742 5742 5742 5742 5742 5742 5743 5743 5744 5744 5745 5747 5748
5776 5775 5773 5772 5771 5769 5767 5765 5764 5762 5761 5759 5757 5756 5754 5752 5750 5748 5746 5745 5743 5741 5740 5738 5737 5736 5734 5733 5733 5732 5732 5731 5731 5731 5731 5731 5732 5732 5732 5733 5734 5735 5737
5769 5767 5766 5764 5763 5762 5760 5758 5756 5755 5753 5751 5749 5747 5746 5744 5742 5739 5737 5735 5733 5732 5730 5728 5727 5725 5724 5723 5722 5721 5721 5720 5720 5720 5720 5720 5720 5720 5721 5721 5722 5724 5725
5761 5760 5758 5757 5755 5754 5752 5750 5748 5746 5744 5742 5740 5738 5736 5734 5732 5730 5727 5725 5723 5721 5719 5718 5716 5714 5713 5712 5711 5710 5709 5709 5708 5708 5708 5708 5708 5709 5709 5710 5711 5712 5713
5753 5752 5751 5749 5747 5746 5744 5742 5739 5737 5735 5733 5731 5728 5726 5724 5722 5720 5718 5714 5712 5710 5708 5706 5704 5702 5701 5700 5699 5698 5697 5697 5696 5696 5696 5696 5696 5696 5697 5698 5699 5700 5701
5746 5744 5742 5741 5739 5737 5735 5732 5730 5728 5725 5723 5720 5718 5715 5713 5710 5708 5707 5704 5701 5698 5696 5694 5692 5690 5688 5687 5686 5685 5684 5684 5683 5683 5682 5682 5683 5683 5684 5684 5685 5686 5687
5737 5735 5733 5731 5729 5727 5725 5723 5720 5717 5715 5712 5709 5707 5704 5701 5698 5696 5694 5692 5689 5686 5683 5681 5678 5677 5675 5673 5672 5671 5670 5670 5669 5669 5668 5668 5669 5669 5670 5671 5672 5673 5674
5729 5727 5725 5722 5720 5717 5715 5712 5710 5707 5704 5701 5698 5695 5692 5689 5686 5683 5681 5678 5676 5674 5671 5668 5665 5663 5661 5659 5658 5657 5656 5655 5655 5654 5654 5654 5654 5655 5655 5656 5657 5658 5660
5719 5717 5715 5712 5710 5707 5704 5701 5698 5695 5692 5689 5685 5682 5679 5676 5672 5670 5667 5664 5662 5660 5657 5654 5651 5648 5646 5645 5643 5642 5641 5640 5640 5639 5639 5639 5639 5640 5640 5641 5642 5644 5645
5709 5707 5705 5702 5699 5696 5693 5690 5686 5683 5679 5676 5672 5669 5666 5662 5659 5656 5652 5649 5647 5645 5643 5640 5636 5634 5632 5630 5629 5627 5626 5625 5625 5624 5624 5624 5624 5625 5625 5626 5627 5628 5630
5699 5697 5694 5691 5688 5684 5681 5678 5674 5670 5666 5663 5659 5655 5652 5648 5645 5641 5638 5635 5631 5629 5627 5625 5622 5619 5617 5615 5614 5612 5611 5610 5609 5609 5609 5609 5609 5609 5610 5611 5611 5613 5614
5688 5686 5683 5680 5676 5672 5669 5665 5661 5657 5653 5649 5645 5641 5638 5634 5630 5627 5623 5620 5617 5614 5612 5610 5607 5604 5602 5600 5599 5597 5596 5595 5594 5594 5593 5593 5593 5594 5594 5595 5596 5597 5598
5677 5674 5671 5668 5664 5660 5656 5652 5648 5644 5640 5636 5631 5627 5623 5619 5616 5612 5609 5605 5602 5599 5597 5595 5593 5589 5587 5585 5584 5582 5581 5580 5579 5579 5578 5578 5578 5578 5579 5579 5580 5581 5582
5665 5662 5659 5655 5651 5647 5643 5639 5635 5630 5626 5622 5617 5613 5609 5605 5601 5597 5594 5591 5588 5585 5582 5580 5578 5575 5573 5571 5569 5568 5566 5565 5565 5564 5563 5563 5563 5563 5563 5564 5564 5565 5566
5653 5649 5646 5642 5638 5634 5630 5625 5621 5617 5612 5607 5603 5599 5594 5590 5587 5583 5580 5576 5573 5570 5568 5565 5563 5561 5558 5556 5555 5554 5552 5551 5550 5549 5548 5547 5547 5547 5547 5548 5548 5549 5550
5640 5636 5632 5628 5624 5620 5615 5611 5606 5602 5597 5593 5588 5584 5579 5575 5572 5568 5565 5562 5559 5556 5553 5551 5549 5547 5545 5543 5541 5540 5539 5537 5535 5535 5534 5532 5532 5532 5532 5532 5532 5533 5535
5626 5622 5618 5614 5610 5605 5600 5596 5591 5587 5583 5578 5573 5569 5564 5560 5557 5553 5550 5547 5545 5542 5539 5537 5535 5533 5531 5529 5527 5526 5525 5524 5523 5521 5520 5518 5517 5517 5517 5517 5517 5518 5519
5612 5608 5604 5599 5595 5590 5585 5580 5576 5572 5567 5562 5558 5554 5550 5546 5542 5539 5536 5533 5531 5528 5526 5523 5522 5519 5517 5515 5513 5512 5511 5509 5508 5507 5506 5506 5504 5503 5502 5502 5502 5503 5504
5598 5593 5589 5584 5580 5575 5570 5565 5560 5556 5552 5547 5543 5538 5535 5531 5528 5525 5522 5519 5517 5514 5512 5510 5508 5506 5503 5501 5500 5498 5497 5496 5495 5493 5492 5493 5491 5490 5489 5487 5487 5488 5488
5583 5578 5574 5569 5565 5560 5554 5549 5545 5541 5537 5533 5528 5524 5521 5517 5514 5510 5508 5506 5503 5501 5498 5496 5495 5493 5490 5488 5487 5485 5484 5483 5482 5480 5479 5479 5478 5477 5476 5474 5473 5472 5473
5567 5563 5558 5553 5548 5544 5539 5534 5529 5525 5522 5518 5515 5511 5507 5503 5500 5496 5494 5492 5490 5488 5485 5483 5481 5480 5477 5475 5474 5472 5471 5469 5468 5467 5466 5465 5464 5463 5463 5462 5459 5458 5457